www.pogodaiklimat.ru

Архив погоды в Баия-Бланке (Аргентина)

Время
(UTC), дата
10 6.04
11 6.04
12 6.04
13 6.04
14 6.04
15 6.04
16 6.04
17 6.04
18 6.04
19 6.04
20 6.04
21 6.04
22 6.04
23 6.04
00 7.04
02 7.04
03 7.04
05 7.04
06 7.04
07 7.04
08 7.04
09 7.04
10 7.04
11 7.04
12 7.04
13 7.04
14 7.04
15 7.04
16 7.04
17 7.04
18 7.04
19 7.04
20 7.04
21 7.04
22 7.04
23 7.04
00 8.04
01 8.04
02 8.04
03 8.04
04 8.04
05 8.04
06 8.04
07 8.04
08 8.04
09 8.04
10 8.04
11 8.04
12 8.04
13 8.04
14 8.04
15 8.04
16 8.04
17 8.04
18 8.04
19 8.04
20 8.04
21 8.04
22 8.04
23 8.04
00 9.04
01 9.04
02 9.04
03 9.04
04 9.04
05 9.04
06 9.04
07 9.04
08 9.04
09 9.04
10 9.04
11 9.04
12 9.04
13 9.04
14 9.04
15 9.04
16 9.04
17 9.04
18 9.04
19 9.04
20 9.04
21 9.04
22 9.04
23 9.04
00 10.04
01 10.04
02 10.04
03 10.04
04 10.04
05 10.04
07 10.04
08 10.04
09 10.04
10 10.04
11 10.04
12 10.04
13 10.04
14 10.04
15 10.04
16 10.04
17 10.04
18 10.04
19 10.04
20 10.04
21 10.04
22 10.04
23 10.04
00 11.04
01 11.04
02 11.04
03 11.04
04 11.04
05 11.04
06 11.04
07 11.04
08 11.04
09 11.04
10 11.04
11 11.04
12 11.04
13 11.04
14 11.04
15 11.04
16 11.04
17 11.04
18 11.04
19 11.04
20 11.04
21 11.04
22 11.04
23 11.04
00 12.04
01 12.04
02 12.04
03 12.04
04 12.04
05 12.04
06 12.04
07 12.04
08 12.04
09 12.04
11 12.04
12 12.04
13 12.04
14 12.04
15 12.04
16 12.04
17 12.04
18 12.04
19 12.04
20 12.04
21 12.04
22 12.04
23 12.04
00 13.04
01 13.04
02 13.04
03 13.04
04 13.04
05 13.04
06 13.04
07 13.04
08 13.04
09 13.04
Ветер
(напр.,м/с)
Видим. Явления Облачность Т
(С)
Тd
(С)
f
(%)
Тe
(С)
Тes
(С)
Комфортность P
(гПа)
Po
(гПа)
Тmin
(С)
Tmax
(С)
R
(мм)
R24
(мм)
S
(см)
С 7 15 км 3/0
[Ac As]
+20.0 +8.7 48 +21 +21 комфорт 1013.1 1003.4
СЗ 8 15 км 4/0
[Ac cast]
+20.2 +11.2 56 +21 +21 комфорт 1013.2 1003.4
СЗ 9 15 км 4/0
[Ac cuf]
+22.1 +11.0 49 +24 +24 комфорт 1013.0 1003.2 +12.3 +22.1
СЗ 9 15 км 4/0
[Ac cuf]
+24.4 +10.5 42 +26 +26 жарко 1012.4 1002.6
СЗ 11 15 км 9/9 480 м +26.4 +9.6 35 +27 +27 жарко 1012.3 1002.6
СЗ 10 15 км 9/6 600 м
[St Ac As Cs]
+29.0 +9.6 30 +29 +29 жарко 1011.4 1001.7
СЗ 12 10 км пыльная буря 10/3 700 м
[St Cs]
+29.8 +11.8 33 +30 +30 жарко 1010.9 1001.2
С 12 10 км пыльная буря 10/10 1050 м +30.8 +14.6 37 +33 +33 душно 1010.2 1000.5
С 12 12 км пыльная буря 3/3 1200 м
[Sc]
+31.1 +7.0 22 +33 +33 душно 1009.5 999.8
СЗ 16 10 км пыльная буря 8/6 800 м
[Sc As op]
+30.8 +10.4 28 +31 +31 жарко 1009.4 999.8
С 18 8000 м пыльная буря 5/5 800 м
[St]
+30.3 +6.8 23 +29 +29 жарко 1009.3 999.8
С 15 8000 м пыльная буря 6/6 800 м
[St]
+29.0 +5.6 23 +28 +28 жарко 1009.7 1000.1
С 11 10 км пыльная буря 3/3 900 м
[Cu med, cong]
+27.0 +6.8 28 +27 +27 жарко 1010.3 1000.6
С 10 15 км {пыльная буря} 1/0
[As trans]
+25.7 +10.0 37 +26 +26 жарко 1010.8 1001.2
С 10 15 км {пыльная буря} ясно +23.9 +7.8 36 +24 +24 комфорт 1011.3 1001.7 +22.1 +31.1
СЗ 7 15 км 1/0
[Ci fib]
+20.8 +9.3 48 +22 +22 комфорт 1012.5 1002.9
С 8 15 км ясно +19.7 +9.9 53 +20 +20 1013.0 1003.4
С 9 {14} 15 км 3/0
[Ci fib]
+18.5 +10.6 60 +18 +18 1013.7 1004.1
С 9 15 км 5/0
[Ci fib]
+17.9 +11.2 65 +17 +17 1013.7 1004.1
СЗ 10 15 км 4/0
[Ci fib]
+17.1 +11.7 71 +16 +16 1013.5 1003.8
СЗ 8 15 км 4/0
[Ci fib]
+16.4 +11.7 74 +15 +15 1013.1 1003.4
СЗ 8 15 км 1/0
[Ci fib]
+15.5 +11.9 79 +14 +14 1013.6 1003.8
СЗ 7 15 км 1/0
[Ac cast Ci fib]
+14.6 +11.9 84 +12 +12 1014.2 1004.5
С 6 15 км 3/0
[Ci sp]
+14.1 +11.9 87 +12 +12 1014.5 1004.6
С 8 15 км 6/0
[Cs]
+15.8 +12.2 79 +14 +14 1014.8 1005.0 +14.1 +23.9
С 7 15 км 6/0
[Ci sp]
+19.0 +11.0 60 +19 +20 1014.3 1004.6
СЗ 7 15 км 3/0
[Ci sp]
+21.5 +8.3 43 +23 +24 комфорт 1014.1 1004.4
С 8 15 км 1/0
[Ci sp]
+24.1 +8.1 36 +25 +26 комфорт 1013.6 1003.8
СЗ 8 15 км 3/0
[Ci fib]
+26.4 +6.0 27 +26 +28 жарко 1013.3 1003.7
СЗ 8 15 км ясно +27.8 +6.4 26 +27 +29 жарко 1012.4 1002.8
СЗ 8 15 км ясно +29.4 +4.1 20 +28 +29 жарко 1011.8 1002.2
СЗ 8 15 км ясно +29.5 +2.9 18 +27 +28 жарко 1011.7 1002.1
СЗ 6 15 км ясно +29.4 +2.3 18 +27 +28 жарко 1011.5 1001.8
З 5 15 км 1/0
[Ci fib]
+28.6 +3.5 20 +27 +27 жарко 1011.6 1001.8
З 2 15 км 1/0
[Ac und]
+25.6 +4.9 26 +25 +25 комфорт 1011.6 1001.8
С 1 15 км 1/0
[Ac und]
+23.4 +5.0 30 +23 +23 комфорт 1012.0 1002.2
С 3 15 км 3/0
[Ac cast]
+20.8 +3.3 32 +22 +22 комфорт 1012.5 1002.6 +15.8 +29.6
С 4 15 км 3/0
[Ci fib]
+19.4 +7.9 47 +20 +20 1012.4 1002.6
С 4 15 км 3/0
[Ac cast Ci fib]
+19.8 +12.8 64 +21 +21 комфорт 1012.2 1002.5
С 7 15 км 4/0
[Ci fib]
+21.6 +14.5 64 +25 +25 комфорт 1011.9 1002.2
С 7 15 км 3/0
[Ci fib]
+21.8 +13.6 60 +25 +25 комфорт 1011.7 1002.1
С 7 15 км 3/0
[Ac As Ci fib]
+22.0 +13.0 57 +25 +25 комфорт 1011.7 1002.1
С 8 15 км 4/0
[Ci fib]
+21.2 +13.3 61 +24 +24 комфорт 1011.3 1001.8
С 5 15 км 3/0
[Ci fib]
+19.6 +12.2 62 +21 +21 комфорт 1011.0 1001.4
С 6 15 км 5/0
[Ac As Ci sp]
+19.6 +12.2 62 +21 +21 комфорт 1010.2 1000.6
С 6 15 км 8/0
[Ci sp]
+20.0 +11.8 59 +21 +21 комфорт 1009.7 1000.1
С 7 15 км 6/0
[Ci sp]
+20.0 +11.4 58 +21 +21 комфорт 1009.4 999.8
С 7 15 км 6/0
[Ac As Ci sp]
+20.0 +11.4 58 +21 +21 комфорт 1009.0 999.4
С 9 15 км 8/0
[Ac cast Cc]
+21.8 +13.2 58 +24 +25 комфорт 1008.8 999.0 +19.2 +22.1
С 14 15 км 6/0
[Ac cast Cc]
+24.2 +11.6 45 +26 +26 жарко 1008.2 998.6
С 13 3500 м пыльный позёмок 8/0
[Ac trans Cc]
+25.4 +10.5 39 +26 +26 жарко 1008.1 998.5
С 14 5000 м пыльный позёмок 6/0
[Cc]
+28.4 +11.1 34 +29 +29 жарко 1007.5 998.0
С 14 6000 м пыльный позёмок 5/0
[Cc]
+29.0 +12.0 35 +30 +30 жарко 1007.2 997.7
С 13 8000 м пыльный позёмок 5/0
[Cc]
+29.9 +11.3 32 +30 +30 жарко 1006.3 996.8
СЗ 12 15 км пыльный позёмок 4/0
[Cc]
+30.4 +12.7 34 +31 +31 жарко 1005.9 996.4
С 11 12 км пыльный позёмок 6/0
[Cc]
+30.2 +12.4 34 +31 +31 жарко 1005.9 996.4
СЗ 10 15 км 6/0
[Cc]
+30.2 +12.0 33 +31 +31 жарко 1005.9 996.4
СЗ 9 15 км 6/4 1500 м
[Sc Cc]
+29.0 +12.5 36 +30 +30 жарко 1005.9 996.4
СЗ 4 15 км гроза без осадков {дождь} туман 8/5 1470 м
[Cb cap Cs]
+22.4 +17.3 73 +27 +27 душно 1007.0 997.4
С 3 15 км в посл. час гроза 9/3 1500 м
[Frnb Ac inh Cs]
+22.0 +18.9 83 +27 +27 душно 1007.9 998.2
З 5 15 км {гроза} 3/0
[Ac cast]
+23.4 +15.1 60 +28 +28 душно 1009.0 999.4 +21.8 +30.6 1
ЮЗ 3 15 км 3/0
[Ac und]
+21.6 +13.8 61 +24 +24 комфорт 1010.1 1000.5
З 2 15 км ясно +19.2 +13.7 70 +21 +21 комфорт 1010.7 1001.0
З 1 15 км ясно +18.4 +13.5 73 +20 +20 1011.3 1001.7
СЗ 2 15 км ясно +16.6 +12.3 76 +17 +17 1011.8 1002.2
Ю 11 15 км 5/3 1410 м
[Sc Ac As]
+16.8 +13.7 82 +15 +15 1014.1 1004.5
Ю 8 15 км 10/6 450 м
[Sc Ac As]
+15.9 +12.7 81 +14 +14 1016.3 1006.6
Ю 9 15 км 10/8 1050 м
[Sc As op]
+15.7 +10.5 71 +14 +14 1017.3 1007.6
Ю 9 15 км 10/10 750 м
[Frnb]
+15.2 +9.9 71 +13 +13 1017.9 1008.2
Ю 10 15 км 10/10 1050 м
[Frnb]
+14.6 +9.2 70 +12 +12 1018.9 1009.2
Ю 9 15 км 10/10 1050 м
[Sc]
+14.3 +8.4 68 +12 +12 1020.0 1010.1
Ю 8 15 км 10/8 1410 м
[Sc As op]
+14.0 +7.6 65 +12 +12 1020.6 1010.6
Ю 6 15 км 4/0
[Ac trans Cs]
+13.4 +6.8 64 +11 +12 1021.3 1011.4 +13.4 +23.4 1
Ю 8 15 км 4/4 900 м
[Sc Ci fib]
+13.8 +7.3 65 +11 +12 1022.1 1012.2
Ю 6 15 км 4/3 900 м
[Sc Ci fib]
+15.2 +7.7 61 +14 +15 1022.4 1012.5
Ю 6 15 км 3/3 900 м
[Sc Ci fib]
+16.2 +7.0 54 +15 +17 1022.3 1012.4
Ю 6 15 км 3/3 900 м
[Sc Ci fib]
+16.8 +6.8 52 +16 +18 1022.3 1012.4
ЮЗ 5 15 км 3/3 1200 м
[Cu hum Ci fib]
+17.2 +5.8 47 +17 +20 1021.8 1012.0
Ю 5 15 км 3/3 1200 м
[Cu hum Ci]
+17.6 +5.3 44 +17 +20 1021.2 1011.3
СЗ 16 15 км {пыльная буря} 3/3 1200 м
[Sc diur, vesp Ci]
+30.8 +10.4 28 +31 +31 жарко 1009.4 999.8
Ю 5 15 км 3/3 1200 м
[Cu hum Ci]
+17.6 +4.2 41 +17 +18 1020.9 1011.0
ЮВ 4 15 км 5/1 1200 м
[Cu hum Ci]
+15.8 +5.4 50 +15 +15 1020.9 1010.9
ЮВ 4 15 км 4/1 1200 м
[Sc Ac und Ci]
+14.0 +5.6 57 +13 +13 1021.1 1011.0
ЮВ 3 15 км 4/0
[Ci]
+11.6 +5.1 64 +10 +10 1021.6 1011.4
ЮВ 2 15 км 1/0
[Ci]
+10.4 +5.2 70 +9 +9 1022.2 1012.1 +10.4 +17.6
ЮВ 2 15 км 1/0
[Ci]
+9.7 +4.8 71 +9 +9 1022.7 1012.6
ЮВ 1 15 км ясно +9.3 +4.6 72 +9 +9 1023.3 1013.2
Ю 2 15 км 4/0
[Ci]
+9.7 +5.1 73 +8 +8 1024.1 1014.0
ЮЗ 3 15 км 5/0
[Ci]
+10.0 +6.6 79 +8 +8 1024.6 1014.5
Ю 4 15 км 5/0
[Cs]
+10.0 +6.8 80 +8 +8 1024.9 1014.8
ЮЗ 4 15 км 8/0
[Cs]
+9.9 +6.0 77 +7 +7 1024.9 1014.8
штиль 0 15 км 3/0
[Cs]
+7.6 +3.9 77 +7 +7 1025.3 1015.2
ЮЗ 3 15 км 5/0
[Cs]
+6.4 +2.8 78 +4 +4 1026.4 1016.2
ЮЗ 3 15 км 5/0
[Ac cast Cs]
+6.2 +2.0 74 +3 +3 1026.6 1016.4
ЮЗ 3 15 км 5/0
[Ci]
+7.1 +2.3 71 +4 +4 1026.8 1016.6
ЮЗ 5 15 км 8/0
[Ci sp]
+10.0 +3.1 62 +7 +8 1027.5 1017.3 +6.2 +10.6
Ю 7 15 км 8/0
[Ci sp]
+12.2 +2.7 52 +10 +11 1028.0 1017.8
Ю 7 15 км 6/0
[Ci sp]
+13.5 +1.2 43 +11 +13 1028.2 1018.0
Ю 7 15 км 6/0
[Ci sp]
+14.8 +0.4 37 +13 +16 1027.6 1017.6
Ю 8 15 км 6/1 1500 м
[Cu hum Ci sp]
+15.7 +0.9 37 +14 +16 1027.3 1017.2
Ю 7 15 км 6/1 1500 м
[Sc Ci sp]
+16.8 0.0 32 +16 +18 1026.5 1016.4
Ю 8 15 км 5/0
[Ci sp]
+16.9 +0.2 32 +16 +17 1026.2 1016.1
Ю 6 15 км 5/0
[Ci sp]
+16.5 +0.2 33 +15 +17 1026.3 1016.2
ЮВ 5 15 км 5/0
[Ci sp]
+16.2 +0.3 34 +15 +16 1026.3 1016.2
ЮВ 6 15 км 5/0
[Ac As Ci sp]
+15.9 +1.5 38 +15 +15 1026.5 1016.4
ЮВ 4 15 км 8/0
[Cc]
+13.6 +2.0 45 +12 +12 1026.7 1016.5
В 2 15 км 10/0
[Cs]
+12.7 +2.2 49 +13 +13 1027.3 1017.2
В 2 15 км 8/1 1300 м
[Sc Ac As Cs]
+12.2 +3.8 56 +11 +11 1027.9 1017.7 +10.0 +17.4
Ю 1 15 км 8/0
[Ac As Cs]
+11.9 +5.5 65 +12 +12 1028.1 1018.0
Ю 2 15 км 8/8 1140 м
[Sc Ac As Cs]
+12.0 +6.1 67 +12 +12 1028.1 1018.0
В 2 15 км 8/3 1200 м
[Sc Cs]
+11.7 +6.0 68 +11 +11 1028.2 1018.1
С 1 15 км 9/0
[Cs]
+10.2 +5.7 74 +10 +10 1028.4 1018.4
З 1 15 км 9/0
[Cs]
+9.1 +3.6 68 +9 +9 1028.5 1018.4
З 1 15 км 9/0
[Cs]
+10.2 +5.4 72 +10 +10 1028.3 1018.2
ЮВ 2 15 км 8/0
[Cs]
+9.5 +5.6 77 +8 +8 1027.6 1017.6
В 1 15 км 8/0
[Cs]
+8.8 +5.0 77 +8 +8 1027.5 1017.4
ЮВ 1 15 км 8/0 2000 м
[Ac As]
+8.8 +5.3 79 +8 +8 1027.4 1017.3
СВ 2 15 км 9/0 2000 м
[Ac As]
+9.1 +5.1 76 +7 +7 1027.7 1017.6
СВ 3 15 км 9/0 2000 м
[Ac As]
+9.1 +5.6 79 +7 +7 1028.2 1018.0
СВ 1 15 км 9/0
[Ac As]
+10.8 +6.6 75 +11 +11 1028.5 1018.4 +8.5 +12.2
СВ 3 15 км 9/0
[Ac As]
+13.3 +6.7 64 +12 +14 1028.8 1018.8
СВ 3 15 км 9/0
[Ac As]
+14.8 +5.9 55 +14 +17 1028.8 1018.8
В 4 15 км 9/1 1200 м
[Sc Ac As Ci sp]
+16.5 +5.1 47 +16 +19 1028.5 1018.4
В 3 15 км 10/8 1350 м
[Cu Sc Ac As]
+17.1 +5.4 46 +17 +18 1028.4 1018.4
СВ 4 15 км 9/8 1410 м
[Sc Ac As Ci sp]
+16.9 +4.8 45 +17 +18 1027.7 1017.6
В 4 15 км 8/8 1500 м
[Cu Sc]
+18.0 +5.4 43 +18 +19 1027.0 1016.9
СВ 5 15 км 9/9 1500 м
[Cu Sc]
+17.2 +5.8 47 +17 +17 1026.8 1016.8
СВ 4 15 км 9/9 1500 м
[Cu Sc]
+17.0 +5.0 45 +17 +17 1026.9 1016.8
СВ 4 15 км 9/6 1500 м
[Sc diur, vesp Ac As]
+16.2 +5.5 49 +16 +16 1026.9 1016.8
СВ 6 15 км 9/0
[Ac As]
+15.1 +5.8 54 +14 +14 1027.0 1016.9
СВ 5 15 км 8/0
[Ac trans]
+14.1 +6.0 58 +13 +13 1027.4 1017.2
СВ 5 15 км 9/0
[Ac cast Cs]
+13.6 +5.6 58 +12 +12 1027.8 1017.7 +10.8 +18.1
СВ 4 15 км 9/0
[Ac As Cs]
+13.6 +5.6 58 +12 +12 1027.9 1017.8
СВ 3 15 км 8/0
[Ac As Cs]
+12.2 +5.4 63 +11 +11 1028.3 1018.2
СВ 3 15 км 8/0
[Ac As Cs]
+11.4 +5.9 69 +10 +10 1028.6 1018.5
С 2 15 км 6/0
[Ac As Ci sp]
+10.8 +6.6 75 +10 +10 1028.4 1018.4
С 1 15 км 6/0
[Ac As]
+10.2 +6.4 77 +10 +10 1028.1 1018.0
В 3 15 км 8/0 1500 м
[Ac As]
+10.6 +5.9 73 +9 +9 1027.8 1017.7
В 2 15 км 8/0 1500 м
[Ac As]
+11.2 +5.6 68 +11 +11 1027.4 1017.3
В 1 15 км 6/0 1500 м
[Ac As]
+11.4 +5.9 69 +11 +11 1027.9 1017.2
С 3 15 км 5/0 1500 м
[Ac As]
+11.8 +6.4 69 +11 +11 1027.3 1017.2
СВ 4 15 км 10/10 1500 м
[Ns]
+11.8 +6.8 71 +10 +10 1027.6 1017.6
С 6 15 км 10/10 1500 м
[Ns]
+12.0 +7.5 74 +9 +9 1027.9 1017.8 +10.1 +13.6
С 7 15 км 10/10 1200 м
[Ns]
+12.4 +8.0 75 +10 +10 1028.0 1018.0
С 3 15 км 10/3 1050 м
[Frnb As op]
+13.3 +8.1 71 +12 +13 1028.0 1018.0
С 3 15 км 10/3 1200 м
[Sc As op]
+13.7 +8.1 69 +13 +14 1028.0 1018.0
С 2 3600 м слаб. дождь 10/8 900 м
[Frnb As op]
+13.6 +9.3 75 +13 +13 1027.9 1017.8
В 2 15 км в посл. час дождь 10/8 750 м
[Frnb As op]
+12.3 +10.0 86 +12 +12 1027.5 1017.3
В 2 15 км {дождь} 10/3 1500 м
[Sc Ac As]
+12.7 +10.0 84 +12 +14 1026.8 1016.6 0.7
СВ 4 12 км слаб. дождь 10/8 450 м
[Frnb As op]
+12.2 +10.3 88 +10 +10 1026.5 1016.4
СВ 4 12 км слаб. дождь 10/8 1200 м
[Frnb As op]
+11.3 +9.7 90 +9 +9 1026.7 1016.5
В 3 12 км слаб. дождь 10/3 300 м
[Frnb As op]
+11.1 +9.9 92 +9 +9 1027.1 1016.9
В 3 12 км слаб. дождь 10/8 1500 м
[Sc As op]
+10.7 +9.5 92 +9 +9 1026.9 1016.8
В 4 8000 м дождь 10/3 1350 м
[Sc As op]
+10.6 +9.8 95 +8 +8 1027.1 1016.9
СВ 2 10 км слаб. дождь 10/10 1350 м
[Ns]
+10.3 +9.9 97 +9 +9 1027.6 1017.4 +10.3 +13.7 7
В 2 11 км слаб. дождь 10/5 700 м
[Sc As op]
+10.5 +10.1 97 +9 +9 1027.6 1017.4
СВ 2 12 км слаб. дождь 10/3 750 м
[Sc As op]
+10.3 +9.7 96 +9 +9 1027.8 1017.6
СВ 3 15 км в посл. час дождь 10/10 1500 м
[Ns]
+10.3 +9.7 96 +8 +8 1027.8 1017.6
В 2 15 км {дождь} 10/10 1500 м
[Ns]
+10.2 +9.0 92 +9 +9 1028.1 1018.0
В 2 15 км 10/0 2000 м
[As op]
+10.1 +9.3 95 +8 +8 1027.8 1017.6
В 2 15 км {дождь} 10/10 1410 м
[Ns]
+10.1 +9.5 96 +9 +9 1027.7 1017.6 2
В 2 15 км 10/10 1410 м
[St]
+10.2 +9.6 96 +9 +9 1027.4 1017.2
В 2 15 км 10/0
[As trans]
+10.1 +9.7 97 +8 +8 1027.4 1017.2
В 3 15 км 10/0
[As trans]
+10.1 +9.9 99 +8 +8 1027.4 1017.2
Местоположение метеостанции Баия-Бланка (Аргентина): широта -38.73 долгота -62.16 высота над уровнем моря 83 м.
В архиве по умолчанию представлена погода в Баия-Бланке за последнюю неделю. Архивные данные за месяц целиком и за предыдущие месяцы, начиная с января 2011 года, Вы можете получить, выбрав интересующий диапазон дат из раскрывающегося списка и нажав кнопку "Найти!".
*Определитесь, кто Вы:
Внимание! Время в таблицах - всемирное. Для получения местного времени необходимо прибавить поправку, которая равна -3 ч.
Некоторые строки с данными для отдельных станций могут быть выделены курсивом. Это означает, что фактические данные отсутствуют по различным причинам, а приведенные значения являются расчетными модельными данными для данного пункта наблюдений.
Смотрите также архив погоды в соседних городах и на ближайших метеорологических станциях:
Партнеры нашего сайта:      
Пояснения к столбцам:
  • Ветер - указаны скорость ветра в м/с - средняя за 10 мин, порывы в срок и между сроками (в фигурных скобках) и направление, откуда дует ветер: С - северный,
  • СВ - северо-восточный, В - восточный, ЮВ - юго-восточный, Ю - южный, ЮЗ - юго-западный, З - западный, СЗ - северо-западный.
  • Видимость - горизонтальная дальность видимости в метрах или километрах. При видимости от 1 до 10 км при отсутствии осадков обычно наблюдается дымка, при ухудшении видимости до 1 км и менее - туман. В сухую погоду видимость может ухудшаться дымом, пылью или мглою.
  • Явления - указаны атмосферные явления, наблюдавшиеся в срок или в последний час перед сроком; фигурными скобками обозначены явления, наблюдавшиеся между сроками (за 1-3 часа до срока); квадратными скобками обозначены град или гололедные отложения с указанием их диаметра в мм.
  • Облачность - указаны через наклонную черту общая и нижняя облачность в баллах и высота нижней границы облаков в метрах; квадратными скобками обозначены формы облаков: Ci - перистые, Cs - перисто-слоистые, Cc - перисто-кучевые, Ac - высококучевые, As - высокослоистые, Sc - слоисто-кучевые, Ns - слоисто-дождевые, Cu - кучевые, Cb - кучево-дождевые. Подробнее классификацию облаков см. в Атласе облаков (PDF).
  • T - Температура воздуха - температура, измеренная на высоте 2 м над землей.
  • Td - Температура точки росы - температура, при понижении до которой содержащийся в воздухе водяной пар достигнет насыщения.
  • f - Относительная влажность воздуха - влажноcть воздуха, измеренная на высоте 2 м над землей.
  • Te - Эффективная температура - температура, которую ощущает одетый по сезону человек в тени. Характеристика душности погоды. При расчете учитывается влияние влажности воздуха и скорости ветра на теплоощущения человека.
  • Tes - Эффективная температура на солнце - температура, которую ощущает человек, с поправкой на солнечный нагрев. Характеристика знойности погоды. Зависит от высоты солнца над горизонтом, облачности и скорости ветра. Ночью, в пасмурную погоду, а также при ветре 12 м/с и более поправка равна нулю.
  • P - Атмосферное давление - приведенное к уровню моря атмосферное давление.
  • Po - Атмосферное давление - измеренное на уровне метеостанции атмосферное давление.
  • Tmin - Минимальная температура - минимум температуры воздуха на высоте 2 м над землей.
  • Tmax - Максимальная температура - максимум температуры воздуха на высоте 2 м над землей.
  • R - Количество осадков - Количество выпавших осадков за период времени, мм. При наведении курсора мыши на число - период времени, за который выпало указанное количество осадков.
  • R24 - Количество осадков - Количество выпавших осадков за 24 часа, мм.
  • S - Снежный покров - Высота снежного покрова, см. При наведении курсора мыши на число - состояние снежного покрова и степень покрытия местности в баллах.